Weather History for Mora, MN

Change the Weather History Date:

Thursday, November 21, 2013

  Actual Average Record
Temperature  
Mean Temperature 28 °F -  
Max Temperature 35 °F 35 °F 129 °F (1997)
Min Temperature 21 °F 17 °F -3 °F (1978)
Degree Days  
Heating Degree Days 37    
Moisture  
Dew Point 22 °F    
Average Humidity 77    
Maximum Humidity 93    
Minimum Humidity 63    
Precipitation  
Precipitation 0.00 in - - ()
Sea Level Pressure  
Sea Level Pressure 30.28 in    
Wind  
Wind Speed 6 mph (NNW)    
Max Wind Speed 17 mph    
Max Gust Speed 25 mph    
Visibility 7 miles    
Events Fog    
Averages and records for this station are not official NWS values.
T = Trace of Precipitation, MM = Missing Value Source: NWS Daily Summary

Daily Weather History Graph

Daily Weather History Graph

Search for Another Location

Airport:

Trip Planner

Search our weather history database for the weather conditions in past years. The results will help you decide how hot, cold, wet, or windy it might be!

Date:

Astronomy

Nov. 21, 2013 Rise Set
Actual Time 7:21 AM CST 4:35 PM CST
Civil Twilight 6:48 AM CST 5:08 PM CST
Nautical Twilight 6:12 AM CST 5:45 PM CST
Astronomical Twilight 5:36 AM CST 6:20 PM CST
Moon 8:15 PM CST (11/21) 10:27 AM CST (11/21)
Length of Visible Light 10h 19m
Length of Day
9h 14m
Waning Gibbous, 85% of the Moon is Illuminated
Nov 21
Waning Gibbous
Nov 25
Last Quarter
Dec 2
New
Dec 9
First Quarter
Dec 17
Full

Hourly Weather History & Observations

Time (CST) Temp. Windchill Dew Point Humidity Pressure Visibility Wind Dir Wind Speed Gust Speed Precip Events Conditions
12:14 AM 35.6 °F 31.7 °F 32.0 °F 87% 30.05 in 5.0 mi SSE 4.6 mph - N/A   Overcast
12:34 AM 33.8 °F - 32.0 °F 93% 30.05 in 4.0 mi Calm Calm - N/A   Overcast
12:54 AM 33.8 °F - 32.0 °F 93% 30.05 in 4.0 mi Calm Calm - N/A   Overcast
1:14 AM 33.8 °F - 32.0 °F 93% 30.06 in 4.0 mi Calm Calm - N/A   Overcast
1:34 AM 33.8 °F - 32.0 °F 93% 30.06 in 3.0 mi Calm Calm - N/A   Overcast
1:54 AM 33.8 °F - 32.0 °F 93% 30.07 in 3.0 mi Calm Calm - N/A   Overcast
2:14 AM 33.8 °F - 32.0 °F 93% 30.07 in 3.0 mi Calm Calm - N/A   Overcast
2:34 AM 33.8 °F - 32.0 °F 93% 30.07 in 2.5 mi Calm Calm - N/A   Overcast
2:54 AM 33.8 °F - 32.0 °F 93% 30.08 in 2.5 mi Calm Calm - N/A   Overcast
3:14 AM 33.8 °F - 32.0 °F 93% 30.08 in 2.5 mi Calm Calm - N/A   Overcast
3:34 AM 33.8 °F - 32.0 °F 93% 30.08 in 1.5 mi Calm Calm - N/A   Overcast
3:54 AM 33.8 °F 30.8 °F 32.0 °F 93% 30.08 in 1.2 mi South 3.5 mph - N/A   Overcast
4:14 AM 33.8 °F - 32.0 °F 93% 30.09 in 1.0 mi Calm Calm - N/A   Overcast
4:34 AM 33.8 °F - 32.0 °F 93% 30.08 in 1.0 mi Calm Calm - N/A   Overcast
4:54 AM 33.8 °F - 32.0 °F 93% 30.09 in 0.8 mi Calm Calm - N/A   Overcast
5:14 AM 33.8 °F - 32.0 °F 93% 30.10 in 0.8 mi Calm Calm - N/A   Overcast
5:34 AM 33.8 °F - 32.0 °F 93% 30.10 in 0.8 mi Calm Calm - N/A   Overcast
5:54 AM 33.8 °F - 32.0 °F 93% 30.11 in 0.5 mi Calm Calm - N/A Fog Fog
6:14 AM 33.8 °F 30.8 °F 32.0 °F 93% 30.13 in 0.5 mi WSW 3.5 mph - N/A Fog Fog
6:34 AM 33.8 °F 30.8 °F 32.0 °F 93% 30.14 in 1.0 mi West 3.5 mph - N/A   Overcast
6:54 AM 33.8 °F 27.0 °F 32.0 °F 93% 30.15 in 1.5 mi NNW 8.1 mph - N/A   Overcast
7:14 AM 33.8 °F 24.3 °F 32.0 °F 93% 30.16 in 4.0 mi NNW 13.8 mph 20.7 mph N/A   Overcast
7:34 AM 32.0 °F 21.2 °F 30.2 °F 93% 30.17 in 4.0 mi NW 16.1 mph 20.7 mph N/A   Overcast
7:54 AM 32.0 °F 21.2 °F 30.2 °F 93% 30.19 in 5.0 mi NNW 16.1 mph 21.9 mph N/A   Overcast
8:14 AM 32.0 °F 22.5 °F 30.2 °F 93% 30.20 in 5.0 mi NNW 12.7 mph - N/A   Overcast
8:34 AM 30.2 °F 18.9 °F 28.4 °F 93% 30.22 in 10.0 mi NNW 16.1 mph 21.9 mph N/A   Overcast
8:54 AM 30.2 °F 19.8 °F 28.4 °F 93% 30.23 in 10.0 mi NNW 13.8 mph 18.4 mph N/A   Overcast
9:14 AM 30.2 °F 20.2 °F 26.6 °F 86% 30.23 in 10.0 mi NNW 12.7 mph 20.7 mph N/A   Overcast
9:34 AM 30.2 °F 18.5 °F 24.8 °F 80% 30.24 in 10.0 mi NNW 17.3 mph 21.9 mph N/A   Overcast
9:54 AM 30.2 °F 20.8 °F 23.0 °F 75% 30.25 in 10.0 mi North 11.5 mph 24.2 mph N/A   Overcast
10:14 AM 30.2 °F 20.2 °F 21.2 °F 69% 30.27 in 10.0 mi North 12.7 mph 18.4 mph N/A   Overcast
10:34 AM 30.2 °F 22.6 °F 21.2 °F 69% 30.27 in 10.0 mi North 8.1 mph 17.3 mph N/A   Overcast
10:54 AM 30.2 °F 18.9 °F 21.2 °F 69% 30.27 in 10.0 mi NNW 16.1 mph 25.3 mph N/A   Overcast
11:14 AM 28.4 °F 18.0 °F 21.2 °F 74% 30.28 in 10.0 mi North 12.7 mph 17.3 mph N/A   Overcast
11:34 AM 28.4 °F 18.0 °F 21.2 °F 74% 30.28 in 10.0 mi NNW 12.7 mph 17.3 mph N/A   Overcast
11:54 AM 28.4 °F 18.0 °F 19.4 °F 69% 30.28 in 10.0 mi NNW 12.7 mph 20.7 mph N/A   Overcast
12:14 PM 28.4 °F 20.4 °F 19.4 °F 69% 30.29 in 10.0 mi North 8.1 mph 18.4 mph N/A   Overcast
12:34 PM 30.2 °F 20.2 °F 19.4 °F 64% 30.30 in 10.0 mi NNW 12.7 mph 18.4 mph N/A   Overcast
12:54 PM 28.4 °F 18.5 °F 19.4 °F 69% 30.31 in 10.0 mi North 11.5 mph 21.9 mph N/A   Overcast
1:14 PM 28.4 °F 20.4 °F 17.6 °F 64% 30.31 in 10.0 mi North 8.1 mph 16.1 mph N/A   Overcast
1:34 PM 28.4 °F 17.5 °F 19.4 °F 69% 30.32 in 10.0 mi NNW 13.8 mph 17.3 mph N/A   Overcast
1:54 PM 28.4 °F 18.0 °F 19.4 °F 69% 30.32 in 10.0 mi NNW 12.7 mph 19.6 mph N/A   Overcast
2:14 PM 26.6 °F 18.2 °F 19.4 °F 74% 30.34 in 10.0 mi North 8.1 mph 21.9 mph N/A   Overcast
2:34 PM 26.6 °F 15.7 °F 19.4 °F 74% 30.34 in 10.0 mi NNW 12.7 mph 19.6 mph N/A   Overcast
2:54 PM 26.6 °F 19.1 °F 19.4 °F 74% 30.35 in 10.0 mi North 6.9 mph 18.4 mph N/A   Overcast
3:14 PM 26.6 °F 17.5 °F 17.6 °F 69% 30.35 in 10.0 mi North 9.2 mph 19.6 mph N/A   Overcast
3:34 PM 28.4 °F 21.2 °F 17.6 °F 64% 30.36 in 10.0 mi North 6.9 mph 19.6 mph N/A   Overcast
3:54 PM 28.4 °F 20.4 °F 17.6 °F 64% 30.37 in 10.0 mi North 8.1 mph 18.4 mph N/A   Overcast
4:14 PM 26.6 °F 20.0 °F 15.8 °F 64% 30.38 in 10.0 mi North 5.8 mph 19.6 mph N/A   Overcast
4:34 PM 26.6 °F 16.8 °F 15.8 °F 64% 30.39 in 10.0 mi North 10.4 mph 20.7 mph N/A   Overcast
4:54 PM 26.6 °F 17.5 °F 15.8 °F 64% 30.40 in 10.0 mi NNW 9.2 mph - N/A   Overcast
5:14 PM 26.6 °F 15.2 °F 15.8 °F 64% 30.40 in 10.0 mi NNW 13.8 mph 20.7 mph N/A   Overcast
5:34 PM 26.6 °F 17.5 °F 15.8 °F 64% 30.41 in 10.0 mi North 9.2 mph - N/A   Overcast
5:54 PM 26.6 °F 16.8 °F 17.6 °F 69% 30.41 in 10.0 mi NNW 10.4 mph - N/A   Overcast
6:14 PM 26.6 °F 17.5 °F 15.8 °F 64% 30.42 in 10.0 mi North 9.2 mph 16.1 mph N/A   Overcast
6:34 PM 26.6 °F 15.7 °F 15.8 °F 64% 30.42 in 10.0 mi North 12.7 mph 18.4 mph N/A   Overcast
6:54 PM 26.6 °F 16.2 °F 15.8 °F 64% 30.44 in 10.0 mi NNW 11.5 mph 18.4 mph N/A   Overcast
7:14 PM 26.6 °F 19.1 °F 15.8 °F 64% 30.44 in 10.0 mi North 6.9 mph 19.6 mph N/A   Overcast
7:34 PM 24.8 °F 14.6 °F 14.0 °F 64% 30.45 in 10.0 mi NNW 10.4 mph - N/A   Overcast
7:54 PM 24.8 °F 17.9 °F 14.0 °F 64% 30.45 in 10.0 mi NNW 5.8 mph 17.3 mph N/A   Overcast
8:14 PM 24.8 °F 13.4 °F 14.0 °F 64% 30.46 in 10.0 mi NNW 12.7 mph 19.6 mph N/A   Overcast
8:34 PM 24.8 °F 13.4 °F 14.0 °F 64% 30.47 in 10.0 mi NNW 12.7 mph 18.4 mph N/A   Overcast
8:54 PM 23.0 °F 13.1 °F 14.0 °F 68% 30.48 in 10.0 mi NNW 9.2 mph - N/A   Overcast
9:14 PM 23.0 °F 11.1 °F 12.2 °F 63% 30.48 in 10.0 mi NNW 12.7 mph 17.3 mph N/A   Mostly Cloudy
9:34 PM 21.2 °F 10.9 °F 12.2 °F 68% 30.49 in 10.0 mi North 9.2 mph 17.3 mph N/A   Mostly Cloudy
9:54 PM 21.2 °F 10.1 °F 12.2 °F 68% 30.50 in 10.0 mi NNW 10.4 mph 18.4 mph N/A   Mostly Cloudy
10:14 PM 21.2 °F 8.9 °F 12.2 °F 68% 30.50 in 10.0 mi NNW 12.7 mph 18.4 mph N/A   Overcast
10:34 PM 21.2 °F 11.7 °F 12.2 °F 68% 30.51 in 10.0 mi North 8.1 mph 17.3 mph N/A   Overcast
10:54 PM 21.2 °F 13.6 °F 12.2 °F 68% 30.51 in 10.0 mi North 5.8 mph - N/A   Overcast
11:14 PM 21.2 °F 11.7 °F 12.2 °F 68% 30.52 in 10.0 mi NNW 8.1 mph - N/A   Overcast
11:33 PM 21.2 °F 12.6 °F 12.2 °F 68% 30.52 in 10.0 mi NNW 6.9 mph - N/A   Overcast
11:53 PM 21.2 °F 12.6 °F 10.4 °F 63% 30.52 in 10.0 mi North 6.9 mph - N/A   Mostly Cloudy